Taunton, MA

8:38 PM EST on December 14, 2017 (GMT -0500)
Taunton Municipal

Weather History for KTAN - January, 2012

Change the Weather History Date:

Sunday, January 29, 2012

  Actual Average Record
Temperature  
Mean Temperature 39 °F -  
Max Temperature 43 °F 36 °F 66 °F (2002)
Min Temperature 35 °F 16 °F -11 °F (2005)
Degree Days  
Heating Degree Days 26    
Moisture  
Dew Point 18 °F    
Average Humidity 46    
Maximum Humidity 73    
Minimum Humidity 26    
Precipitation  
Precipitation 0.00 in - - ()
Sea Level Pressure  
Sea Level Pressure 30.04 in    
Wind  
Wind Speed 9 mph (WSW)    
Max Wind Speed 17 mph    
Max Gust Speed 28 mph    
Visibility 10 miles    
Events      
Averages and records for this station are not official NWS values.
T = Trace of Precipitation, MM = Missing Value Source: NWS Daily Summary

Daily Weather History Graph

Daily Weather History Graph

Search for Another Location

Airport or City:

Trip Planner

Search our weather history database for the weather conditions in past years. The results will help you decide how hot, cold, wet, or windy it might be!

Date:

Astronomy

Jan. 29, 2012 Rise Set
Actual Time 6:59 AM EST 4:54 PM EST
Civil Twilight 6:30 AM EST 5:24 PM EST
Nautical Twilight 5:56 AM EST 5:58 PM EST
Astronomical Twilight 5:23 AM EST 6:30 PM EST
Moon 9:42 AM EST (1/29) 11:44 PM EST (1/29)
Length of Visible Light 10h 54m
Length of Day
9h 54m
Waxing Crescent, 36% of the Moon is Illuminated
Jan 29
Waxing Crescent
Jan 30
First Quarter
Feb 7
Full
Feb 14
Last Quarter
Feb 21
New

Hourly Weather History & Observations

Time (EST) Temp. Windchill Dew Point Humidity Pressure Visibility Wind Dir Wind Speed Gust Speed Precip Events Conditions
12:52 AM 39.9 °F 35.1 °F 32.0 °F 73% 29.90 in 10.0 mi WSW 6.9 mph - N/A   Clear
1:52 AM 41.0 °F 34.7 °F 28.9 °F 62% 29.93 in 10.0 mi West 10.4 mph - N/A   Clear
2:52 AM 39.0 °F 33.4 °F 28.0 °F 65% 29.95 in 10.0 mi West 8.1 mph 17.3 mph N/A   Mostly Cloudy
3:52 AM 37.0 °F 33.3 °F 26.1 °F 65% 29.98 in 10.0 mi WSW 4.6 mph - N/A   Scattered Clouds
4:52 AM 37.9 °F 28.5 °F 18.0 °F 45% 30.01 in 10.0 mi West 17.3 mph 27.6 mph N/A   Clear
5:52 AM 36.0 °F 28.5 °F 15.1 °F 43% 30.05 in 10.0 mi West 10.4 mph 19.6 mph N/A   Clear
6:52 AM 35.1 °F 31.0 °F 12.9 °F 40% 30.08 in 10.0 mi West 4.6 mph - N/A   Clear
7:52 AM 35.1 °F 31.0 °F 12.9 °F 40% 30.10 in 10.0 mi West 4.6 mph - N/A   Clear
8:52 AM 37.0 °F 30.4 °F 14.0 °F 39% 30.10 in 10.0 mi WSW 9.2 mph 18.4 mph N/A   Clear
9:52 AM 39.0 °F 31.8 °F 12.9 °F 34% 30.10 in 10.0 mi WSW 11.5 mph 23.0 mph N/A   Clear
10:52 AM 39.9 °F 32.5 °F 12.9 °F 33% 30.09 in 10.0 mi West 12.7 mph 21.9 mph N/A   Clear
11:52 AM 42.1 °F 35.7 °F 12.0 °F 29% 30.07 in 10.0 mi West 11.5 mph 18.4 mph N/A   Clear
12:52 PM 42.1 °F 35.2 °F 12.9 °F 31% 30.05 in 10.0 mi SW 12.7 mph 18.4 mph N/A   Clear
1:52 PM 43.0 °F 37.2 °F 12.0 °F 28% 30.03 in 10.0 mi West 10.4 mph 20.7 mph N/A   Clear
2:52 PM 43.0 °F 38.2 °F 10.0 °F 26% 30.04 in 10.0 mi West 8.1 mph - N/A   Clear
3:52 PM 42.1 °F 36.1 °F 10.9 °F 28% 30.03 in 10.0 mi WSW 10.4 mph - N/A   Clear
4:52 PM 39.0 °F 32.3 °F 19.9 °F 46% 30.05 in 10.0 mi SSW 10.4 mph - N/A   Clear
5:52 PM 37.0 °F 31.0 °F 19.0 °F 48% 30.06 in 10.0 mi SW 8.1 mph - N/A   Clear
6:52 PM 36.0 °F 31.1 °F 19.0 °F 50% 30.06 in 10.0 mi Variable 5.8 mph - N/A   Clear
7:52 PM 36.0 °F 32.1 °F 21.0 °F 55% 30.07 in 10.0 mi SSW 4.6 mph - N/A   Clear
8:52 PM 36.0 °F 30.3 °F 21.9 °F 57% 30.06 in 10.0 mi SSW 6.9 mph - N/A   Clear
9:52 PM 37.0 °F 32.4 °F 23.0 °F 57% 30.05 in 10.0 mi SSW 5.8 mph - N/A   Clear
10:52 PM 36.0 °F 31.1 °F 21.9 °F 57% 30.04 in 10.0 mi SSW 5.8 mph - N/A   Clear
11:52 PM 37.0 °F 31.6 °F 23.0 °F 57% 30.04 in 10.0 mi SW 6.9 mph - N/A   Clear